Theta_e
339 340 340 339 339 339 337 335 334 334 333 333 332 331 330 328 327 331 336 336 334 333 336 337 334 334 335 333 334 335 334 335 333 333 330 325 326 329 328 328 328 328 329 330 329 329 328 327 326 325 324 325 325 326 325 325 325 325 325 325 324 324 324 325 324 324 324 323 323 323 323 323 324 324 324 323 322 322 322 322 322 323 325 326 327
338 339 340 339 339 338 337 336 336 336 336 336 335 331 330 330 329 329 334 337 336 335 336 336 333 333 334 333 334 334 335 334 333 333 331 327 325 326 327 327 328 329 330 329 329 328 327 327 327 325 324 325 325 325 324 324 324 324 324 324 324 323 323 324 323 323 324 323 323 323 323 324 324 324 324 322 322 322 321 321 321 321 322 323 325
337 339 339 339 339 338 337 336 336 336 336 337 336 332 330 331 330 329 333 337 336 336 337 335 333 332 333 333 334 334 334 334 334 333 333 329 325 323 325 327 328 329 329 328 328 328 328 328 327 326 325 325 325 324 323 323 323 323 323 323 323 322 322 323 323 322 323 323 323 323 323 324 324 324 323 322 322 322 321 321 321 321 321 321 322
338 339 339 339 339 339 337 336 335 335 335 335 335 333 331 331 331 330 331 334 334 335 336 334 333 332 331 332 334 333 333 334 334 333 333 331 325 323 324 327 328 330 328 327 328 328 328 328 327 326 326 326 325 323 323 323 322 322 322 321 322 322 322 322 323 322 323 323 323 323 323 324 323 323 322 321 321 320 319 320 321 321 320 321 321
339 339 339 339 339 338 337 336 335 334 334 333 334 333 332 332 331 331 332 333 333 334 335 332 332 331 330 332 334 332 333 334 334 334 334 332 329 325 324 326 328 328 327 327 328 328 327 328 327 326 325 325 324 322 322 322 322 322 321 321 321 321 321 322 322 322 322 322 322 323 323 323 322 322 322 320 320 319 317 318 320 321 321 320 320
339 339 339 339 338 338 337 337 336 335 334 333 333 332 332 333 332 333 334 334 334 335 334 332 331 331 331 332 333 332 334 334 334 335 334 333 331 328 325 326 326 327 326 327 328 328 327 327 327 326 325 325 324 323 322 322 322 322 321 321 321 321 321 321 321 321 321 322 322 321 321 321 321 321 321 320 319 319 318 318 320 320 320 320 320
338 338 338 339 338 337 336 337 337 337 335 334 334 334 333 333 333 334 334 334 335 335 334 333 332 331 332 333 332 332 333 333 334 334 334 333 332 330 328 326 326 325 325 326 327 327 327 327 327 326 325 325 325 324 323 323 322 321 321 321 321 321 321 321 321 321 321 321 321 321 321 320 319 319 320 319 319 319 318 318 319 320 319 320 320
336 337 338 338 338 338 337 337 337 337 337 336 335 335 335 334 334 334 334 334 334 335 334 333 332 331 332 333 332 332 332 333 333 334 334 333 333 332 330 329 328 326 325 325 326 327 327 326 325 325 325 326 325 324 323 322 321 321 321 321 321 321 320 321 320 320 321 321 321 321 321 320 319 319 320 319 319 319 319 319 319 320 320 320 321
335 336 337 337 337 338 337 337 338 338 337 337 336 336 336 336 335 334 334 335 334 334 334 333 332 331 332 333 332 332 333 333 333 333 333 333 333 332 331 331 330 329 327 326 326 326 326 326 324 325 326 325 324 324 323 322 321 321 321 321 320 321 321 321 320 321 321 321 321 321 321 320 319 320 320 320 320 320 321 321 321 321 321 321 321
335 336 336 335 336 337 337 337 337 337 337 337 336 336 336 336 336 334 333 334 333 332 332 333 333 331 331 333 333 333 333 332 332 332 332 333 333 331 331 331 331 331 329 329 328 325 324 325 324 324 325 324 324 324 323 323 322 321 321 321 321 321 322 321 321 321 321 321 321 320 320 320 320 320 320 321 322 322 322 322 322 322 322 321 321
335 336 336 335 334 334 335 336 336 336 336 336 336 336 336 336 336 335 334 334 333 332 332 331 331 331 331 333 334 333 332 331 331 331 332 332 332 332 332 331 331 331 330 331 327 320 320 322 323 324 324 324 324 323 323 322 322 322 322 322 322 322 322 321 321 321 321 320 320 320 320 320 320 320 320 321 322 322 322 323 323 323 323 322 322
335 335 336 335 335 335 335 335 335 336 336 336 336 336 337 337 337 337 334 333 332 332 332 332 331 332 331 332 333 333 333 332 331 331 331 332 332 332 332 331 331 330 331 330 322 316 319 320 321 323 324 324 324 323 322 322 322 323 323 322 322 322 321 321 321 321 321 321 320 320 320 321 321 322 321 320 321 322 323 323 323 324 323 323 323
334 335 335 335 336 336 336 336 335 335 336 336 335 336 337 337 337 336 334 332 332 332 333 333 332 332 332 332 332 332 333 333 331 331 331 332 332 332 331 331 330 330 331 329 321 318 321 321 321 322 322 323 323 323 322 322 323 323 323 323 322 322 322 322 321 322 322 322 321 321 321 322 323 322 321 321 322 323 323 323 323 323 323 323 323
334 334 334 335 336 336 336 336 335 336 336 336 335 335 336 336 335 335 334 333 334 334 333 333 332 331 332 332 332 332 333 331 330 331 331 332 332 332 332 331 330 330 330 328 324 322 324 324 324 323 322 322 323 323 323 322 323 323 323 322 322 322 322 322 322 322 322 323 323 323 323 322 322 322 322 322 322 323 323 323 323 323 324 324 324
335 334 333 334 335 336 336 335 335 335 336 336 336 335 335 335 334 335 335 335 334 334 334 333 332 331 331 332 333 332 332 330 330 330 330 332 332 332 332 331 330 330 329 328 327 326 326 327 326 325 324 323 323 323 323 323 323 323 322 322 323 323 323 323 323 323 323 323 323 323 323 322 322 322 323 323 323 323 323 323 323 324 324 324 324
336 334 333 333 334 335 335 335 335 335 335 336 336 335 334 335 335 335 335 335 334 334 335 333 332 331 330 333 333 332 334 332 329 329 330 332 332 331 331 331 330 330 329 329 329 328 327 327 327 327 327 325 324 324 324 323 323 324 322 322 323 323 323 324 324 324 323 323 323 323 323 322 322 323 323 323 322 323 323 323 323 324 324 324 324
337 336 335 334 334 334 334 334 335 335 335 335 335 335 335 334 335 335 335 335 335 334 334 332 332 331 331 333 333 333 335 333 330 330 330 331 332 331 331 331 331 331 330 330 330 328 328 328 328 328 328 328 326 325 325 324 324 324 322 323 323 323 324 324 324 325 324 323 323 323 322 322 322 322 322 322 322 322 322 322 322 322 323 323 323
337 337 336 335 335 335 335 335 335 335 335 335 335 334 335 335 334 335 335 335 335 333 332 332 332 331 330 332 333 333 333 333 333 333 331 331 332 332 332 331 331 331 331 331 330 329 329 329 328 328 329 329 328 327 325 325 324 324 323 323 322 323 325 324 325 325 324 324 324 324 324 323 322 322 322 322 321 321 321 321 321 321 322 321 322
337 337 337 337 336 335 334 334 335 335 334 334 335 334 335 335 335 335 335 335 335 332 331 332 332 331 330 330 331 332 332 332 334 334 334 333 332 332 332 332 331 331 331 330 330 330 330 329 329 328 329 329 329 328 327 326 326 324 323 324 322 322 325 325 325 325 324 324 324 324 324 323 322 322 322 322 321 319 319 320 320 320 321 320 320
338 338 337 335 336 335 333 333 334 334 334 333 334 334 335 335 335 335 335 335 335 333 332 331 332 331 330 330 331 331 330 331 332 333 334 334 332 332 331 331 331 331 331 330 330 330 330 330 329 329 329 329 328 329 328 328 328 326 323 323 323 322 324 326 325 324 325 324 324 324 324 324 323 323 323 322 321 319 317 318 319 319 320 318 317
337 336 335 334 334 335 334 334 334 334 334 333 333 334 335 335 335 335 335 334 334 334 333 332 332 331 330 330 330 330 329 330 331 331 332 333 333 332 330 330 330 331 332 330 330 330 330 330 329 329 329 329 329 329 329 328 328 327 324 324 323 322 323 325 325 325 325 324 324 325 324 324 324 323 323 322 322 320 317 316 316 316 317 316 316
334 334 334 333 333 334 334 334 335 335 335 334 333 334 334 334 334 335 334 334 334 333 333 332 331 331 331 330 330 330 330 330 330 330 331 331 332 331 330 330 330 331 332 331 330 331 331 330 330 330 330 330 329 329 329 328 327 326 325 324 323 322 322 324 325 325 325 325 325 325 325 324 324 323 323 323 322 321 319 315 312 311 312 313 316
334 334 334 332 332 333 333 333 333 334 335 335 335 334 333 333 333 335 334 332 332 333 333 332 332 331 331 331 331 330 330 331 331 331 330 330 332 331 330 330 331 331 331 330 330 331 331 330 331 331 330 330 329 329 329 328 327 327 326 324 322 323 323 323 324 325 325 325 325 326 326 325 325 324 323 323 322 321 320 317 314 311 311 313 315
335 336 334 331 331 332 332 333 332 333 334 335 335 334 334 332 331 333 334 331 331 333 332 332 332 331 331 331 332 332 332 332 333 331 330 330 331 330 329 330 330 330 330 330 330 331 331 330 330 330 330 329 329 329 328 328 328 328 328 325 322 323 324 323 324 325 325 325 325 326 326 326 326 324 323 322 322 321 320 318 316 313 313 315 315
335 335 334 332 332 332 332 332 332 332 333 335 335 334 334 334 333 332 332 331 331 332 332 332 331 330 331 332 332 333 333 332 332 332 331 330 331 330 330 330 330 330 331 330 329 330 331 330 329 329 329 328 328 328 328 328 329 328 328 326 322 323 325 324 324 325 325 325 325 326 327 327 326 324 324 322 321 321 319 318 315 313 314 316 316
335 335 334 334 333 333 331 330 331 331 331 333 334 334 334 334 335 333 332 332 331 331 332 332 331 331 332 332 332 332 333 332 331 332 331 331 331 330 330 330 330 330 330 330 330 330 330 329 328 328 328 328 327 328 328 328 328 328 328 326 322 323 325 324 324 324 324 325 325 325 326 326 326 325 323 321 320 319 318 317 311 310 315 317 316
335 334 334 333 333 333 331 329 329 330 330 332 333 333 334 334 334 334 334 333 331 330 331 331 331 332 332 331 331 331 332 332 331 331 331 332 331 331 331 330 330 330 330 329 329 329 328 328 328 328 328 328 328 328 327 328 328 328 327 325 322 322 324 324 324 324 324 324 325 325 325 326 325 325 322 320 318 315 314 311 305 306 313 315 316
333 333 332 332 331 331 331 330 330 329 329 330 331 332 334 334 334 334 334 334 332 331 332 331 331 332 332 331 331 330 331 331 331 331 332 332 331 331 331 330 330 330 330 329 329 328 328 327 328 328 327 327 328 327 327 327 327 327 327 325 323 323 324 324 324 325 325 325 324 324 325 326 325 323 321 319 317 313 312 307 302 304 309 313 316
331 330 330 330 330 330 330 330 329 329 329 330 330 330 332 333 334 334 333 333 333 332 333 333 332 333 332 331 331 331 331 332 331 332 333 332 330 331 331 329 329 330 330 330 329 327 327 327 327 326 326 327 327 327 326 326 326 327 326 325 325 325 325 325 325 325 325 325 324 324 325 325 324 322 321 319 318 316 315 310 303 302 307 313 314
329 329 329 330 330 329 329 329 328 328 328 329 330 329 330 331 333 334 333 334 333 333 333 333 333 333 332 332 332 332 333 333 332 332 333 332 330 330 330 330 329 328 328 329 328 327 327 327 326 325 326 326 326 326 326 324 324 326 326 325 325 325 325 325 324 324 325 325 325 325 325 323 322 322 320 319 318 317 316 311 303 301 307 311 309
329 329 329 329 329 329 328 328 328 329 329 330 331 331 330 330 333 334 332 332 332 331 332 332 331 331 331 331 333 333 334 334 332 332 332 332 331 330 330 329 329 329 327 328 328 328 327 326 325 325 326 326 326 326 325 323 324 325 325 325 325 325 324 324 324 325 325 325 324 323 321 319 319 321 320 318 316 314 313 308 301 301 305 306 303
329 329 328 329 329 328 328 328 328 329 330 329 330 332 331 331 332 333 330 329 329 329 330 330 329 329 330 332 333 333 333 333 332 332 332 331 331 330 330 329 329 329 328 327 328 328 327 325 325 325 326 325 326 326 324 323 324 324 324 324 324 324 324 324 324 324 324 323 322 319 317 316 316 318 317 314 313 311 308 303 300 300 302 301 300
329 329 329 329 329 329 329 328 328 329 329 329 329 331 332 331 332 332 329 328 329 329 329 329 329 329 330 332 334 333 332 332 332 332 332 331 331 330 330 330 328 328 328 327 327 327 326 325 324 325 325 325 326 325 323 324 325 325 323 322 321 322 324 324 324 324 323 322 320 319 319 315 312 312 311 307 306 305 301 299 299 299 299 299 300
329 329 329 329 329 330 329 328 328 328 329 329 329 331 332 332 332 331 330 329 329 330 329 330 330 330 330 332 333 333 332 332 333 333 332 332 331 330 329 329 329 327 327 327 326 325 326 326 324 325 325 324 325 323 321 323 325 324 323 322 320 319 320 323 324 323 323 323 322 321 320 314 309 309 306 301 300 300 298 298 299 299 299 299 299
329 329 329 329 329 329 329 329 330 329 329 329 329 330 331 331 331 331 331 331 331 330 330 331 332 332 332 332 332 332 332 331 331 332 333 332 330 329 328 328 328 327 326 326 326 325 326 325 323 324 324 323 323 322 320 323 324 323 322 321 321 319 315 317 321 323 323 322 320 318 315 308 305 306 303 299 299 298 298 298 298 298 299 299 299
329 329 329 329 329 329 330 330 330 330 330 329 330 331 331 331 331 331 332 332 331 331 331 331 332 332 332 332 332 331 331 331 331 331 331 330 330 330 329 328 328 328 327 326 326 326 326 325 323 323 322 321 321 321 319 322 323 322 321 321 322 319 311 307 311 315 315 312 309 309 307 303 302 302 302 300 299 299 299 299 298 299 299 299 299
329 329 329 329 329 330 330 330 331 330 330 330 330 331 332 331 331 332 332 331 330 331 331 331 332 332 332 331 331 331 331 331 331 331 330 329 329 329 329 328 328 328 327 326 326 326 325 324 323 322 321 319 320 320 319 321 322 321 321 321 321 318 309 305 305 304 304 302 301 302 301 299 300 300 300 300 300 300 300 299 299 300 300 300 300
328 328 328 328 329 329 328 328 330 330 330 330 330 330 331 331 331 331 331 330 330 330 330 330 331 331 331 332 331 331 331 331 330 330 329 327 328 328 328 329 328 327 327 327 326 325 324 324 323 322 320 319 319 319 319 320 319 320 320 320 318 315 310 312 310 303 300 301 301 302 302 301 302 301 301 302 302 302 302 301 301 301 302 302 302
326 327 327 327 329 329 328 328 329 330 329 329 330 330 330 330 330 330 330 330 330 329 329 330 329 329 331 331 331 330 331 330 329 330 329 327 327 328 327 327 327 326 326 327 326 325 324 324 323 321 319 318 318 319 318 318 316 317 319 318 315 312 311 315 315 308 304 304 305 305 305 306 306 305 305 304 304 304 304 304 303 303 303 303 303
324 326 326 326 327 327 328 329 329 329 329 328 329 329 329 328 328 329 329 330 329 328 328 329 328 329 331 330 329 330 330 330 330 330 330 328 328 328 327 326 327 326 326 326 326 325 325 323 322 321 319 316 316 316 315 315 314 313 314 314 312 310 310 314 316 312 308 308 308 307 307 307 307 307 307 306 306 306 306 305 304 304 303 303 304
322 323 324 324 324 324 326 328 328 328 329 328 328 328 328 328 328 328 328 328 327 326 327 327 327 328 330 329 329 329 329 329 329 329 329 328 328 328 327 326 327 326 325 325 324 324 325 323 321 321 320 317 315 313 311 311 311 310 311 311 309 308 310 313 315 315 312 310 309 308 308 308 307 307 307 307 307 306 306 305 304 303 304 306 307
319 320 320 320 321 321 323 324 325 327 328 328 328 329 329 330 330 329 328 327 327 327 328 328 327 328 329 328 328 329 328 328 328 329 329 328 328 328 327 326 326 326 325 324 323 324 324 322 320 319 320 318 315 314 312 311 310 309 310 311 309 309 312 313 313 313 313 311 309 308 307 307 307 307 307 306 306 306 306 304 303 305 308 310 310
316 316 316 317 318 319 320 321 322 324 327 328 329 329 329 330 330 329 328 328 327 328 329 328 326 326 327 328 328 328 327 328 328 328 328 329 328 327 326 326 325 325 325 325 325 325 323 321 319 319 319 318 316 315 314 313 311 309 310 311 310 311 312 312 311 312 311 310 309 308 307 307 307 307 307 307 307 307 305 303 305 308 310 309 308
314 314 313 314 316 317 319 320 321 323 325 327 328 328 329 329 329 328 327 327 327 327 327 326 325 326 327 327 328 328 328 328 328 328 328 328 328 326 325 325 325 325 325 326 325 324 322 320 319 319 318 317 317 316 315 314 313 312 311 311 311 312 312 311 312 314 313 310 308 309 309 309 308 308 308 309 308 307 306 306 308 309 308 306 305
312 312 312 313 314 316 316 317 319 322 324 326 326 326 327 328 327 327 326 325 325 325 325 325 325 326 325 325 326 327 327 328 328 327 327 326 326 326 325 325 325 325 325 325 324 323 322 320 320 319 318 318 318 317 316 316 317 315 314 313 313 312 312 314 317 318 317 314 311 312 311 310 310 310 310 308 307 307 307 307 307 306 304 303 302
309 310 311 312 313 314 314 315 318 321 323 324 325 326 326 326 326 325 325 324 324 323 323 324 325 324 324 325 326 325 325 325 325 325 325 325 325 325 325 325 324 324 324 324 323 323 323 322 322 322 321 320 320 319 318 318 318 317 317 318 318 315 315 318 319 319 319 316 315 315 312 310 311 312 310 308 307 307 306 305 304 303 302 302 301
307 307 308 310 311 312 314 314 316 319 322 323 324 325 324 324 324 324 323 322 321 321 321 323 324 324 324 324 324 323 322 322 322 323 324 324 324 324 324 324 324 323 323 323 323 323 322 321 321 321 321 321 320 320 320 320 319 319 319 320 320 319 319 319 318 318 318 317 318 318 313 308 310 311 308 306 305 304 303 303 302 302 302 301 300
307 306 306 307 309 312 314 316 317 318 319 321 323 324 324 323 323 322 321 320 318 317 317 318 320 321 322 322 323 323 322 321 321 321 322 322 323 324 324 322 322 322 321 321 322 321 321 321 320 320 319 319 319 319 319 320 320 320 321 320 319 319 319 318 317 317 316 315 317 318 313 308 309 310 306 304 304 303 302 302 301 301 301 301 300
306 305 304 304 306 310 313 315 316 317 318 319 320 322 322 322 320 319 318 317 315 313 312 312 314 316 317 319 321 321 321 320 320 319 319 319 321 323 322 320 320 319 317 317 319 319 319 319 319 319 319 319 320 321 321 321 321 321 321 320 319 319 318 317 315 313 312 312 314 316 315 310 309 309 304 302 303 302 301 301 301 301 301 301 300
306 305 304 303 304 307 308 310 312 315 316 317 318 319 319 320 319 317 316 314 312 309 309 309 310 311 313 316 318 319 320 320 319 318 318 318 318 318 319 318 317 315 314 314 315 315 315 316 316 317 318 319 319 320 320 321 322 322 321 321 320 319 318 317 315 311 309 309 310 313 315 311 308 307 304 302 302 302 301 301 301 301 301 300 300
306 305 304 303 303 304 304 306 310 312 312 313 315 316 317 318 318 317 317 315 311 308 308 309 308 308 310 313 314 315 318 319 318 317 316 316 315 314 316 316 314 313 313 313 313 313 312 312 312 312 313 314 315 317 317 317 318 319 319 319 320 320 319 317 314 311 309 308 309 312 314 311 307 305 304 303 302 301 301 301 301 301 300 300 300
Wind_Speed
12 13 14 14 14 13 11 10 11 13 13 14 14 14 13 12 11 10 11 13 16 16 15 14 14 12 10 8 12 16 13 11 10 9 10 10 12 12 12 12 10 9 10 9 9 8 8 9 9 9 9 9 9 9 9 9 9 8 8 8 9 9 9 9 9 10 10 11 11 11 11 12 12 12 12 13 13 14 15 15 14 14 14 13 13
14 13 15 16 17 16 15 13 14 14 14 15 16 16 15 14 13 13 13 15 17 18 17 16 15 14 13 11 12 15 14 12 11 10 10 10 11 12 13 13 12 11 11 10 9 9 8 8 9 10 10 9 9 9 8 8 8 8 8 8 8 8 9 9 9 10 10 11 11 12 12 12 12 11 12 13 13 13 14 14 15 15 14 14 13
16 15 15 17 19 20 19 17 17 17 16 16 17 18 17 15 15 15 16 16 17 19 18 17 17 14 12 12 13 14 14 13 12 11 11 10 10 11 12 13 13 11 11 10 10 9 9 8 8 10 10 8 8 8 8 8 8 8 8 8 8 8 9 10 9 10 10 10 11 11 12 12 11 11 11 11 12 12 12 13 14 14 14 14 14
17 16 16 18 20 21 21 20 19 19 18 17 17 18 18 17 17 17 17 18 19 20 17 16 16 14 11 11 15 15 15 15 13 13 12 11 10 11 12 13 12 11 10 12 11 9 8 8 9 9 8 8 8 8 8 8 8 7 8 9 9 8 10 11 10 10 10 10 11 11 11 10 10 10 10 10 10 10 10 12 13 13 14 14 14
18 19 18 19 20 20 20 20 20 20 19 20 19 18 18 18 18 17 16 17 20 20 17 14 13 13 13 13 18 15 17 19 16 14 12 11 11 12 13 12 12 11 11 12 11 10 9 9 9 9 8 8 8 8 8 8 8 7 8 9 9 9 10 11 10 11 10 10 10 10 10 9 9 9 10 9 9 10 10 12 13 13 13 13 13
17 19 20 20 19 18 18 19 20 20 20 21 21 19 18 18 18 16 14 13 16 18 15 14 15 14 13 8 12 12 18 19 17 16 13 12 11 11 13 12 12 11 11 12 11 10 9 9 9 9 8 8 8 9 9 9 8 8 8 9 9 9 10 11 11 11 11 10 10 9 9 9 9 9 10 10 11 12 13 14 15 14 13 14 14
15 18 20 20 19 17 17 18 19 19 20 22 22 20 19 18 18 17 15 11 12 17 16 16 18 14 10 6 5 7 17 17 16 15 12 13 12 11 12 12 12 11 12 12 11 11 10 9 9 9 9 9 9 9 10 9 8 8 8 9 9 9 10 10 11 11 11 11 10 10 10 10 10 11 12 13 14 15 16 16 17 17 16 16 17
13 16 19 20 20 19 17 17 18 18 20 21 22 21 20 19 18 17 15 8 8 14 16 17 19 15 12 12 7 4 11 14 14 12 12 12 11 12 13 12 11 11 11 11 11 10 11 10 8 8 9 9 9 8 9 9 9 9 9 9 9 9 10 10 11 11 11 11 11 11 11 11 11 13 14 14 15 17 18 19 20 20 18 18 19
12 15 18 19 20 20 18 16 17 18 19 21 22 22 21 19 18 17 14 6 5 9 14 16 17 15 11 11 11 7 7 12 13 11 12 12 12 14 14 13 12 11 11 10 10 10 10 9 8 9 9 9 9 9 9 9 9 9 9 10 10 10 10 11 11 11 11 11 11 12 12 12 13 15 15 15 16 17 19 20 21 20 19 19 19
13 15 17 18 19 19 19 18 17 17 18 20 21 21 20 20 19 18 17 10 2 4 13 18 18 16 12 9 12 10 6 10 12 12 14 14 14 15 14 14 13 11 10 9 8 9 9 9 10 11 9 8 9 9 10 9 10 10 10 10 10 10 10 11 11 11 11 12 12 12 12 13 14 16 16 15 16 17 18 18 18 18 18 18 18
14 16 17 18 18 18 20 19 18 17 18 20 21 20 20 20 20 19 20 17 9 5 10 15 16 16 15 12 13 12 9 10 10 12 15 16 17 17 16 15 14 12 10 8 8 9 10 10 11 12 11 9 9 10 10 10 11 11 11 11 11 11 11 11 12 12 12 12 12 13 13 14 16 17 16 15 16 16 16 16 16 16 16 16 17
15 17 18 19 18 18 19 20 19 18 19 22 22 22 21 20 21 20 18 17 15 11 9 11 13 12 13 12 13 14 10 11 12 12 14 16 18 19 18 16 16 14 12 10 10 11 12 11 11 12 13 11 10 11 10 10 12 12 11 12 11 12 11 12 12 12 12 12 13 14 14 15 15 15 15 15 15 14 14 15 15 14 14 15 16
16 17 18 19 20 19 19 20 21 20 21 22 22 22 21 20 20 19 17 16 16 14 13 11 10 8 8 9 13 14 10 10 12 11 12 15 18 19 17 16 15 15 15 14 13 13 13 13 12 12 13 14 12 12 9 9 12 12 11 12 12 11 11 12 12 12 13 12 13 15 16 15 15 15 16 16 16 14 14 14 14 14 14 15 15
17 17 18 19 20 20 21 21 21 21 21 21 22 21 20 20 19 18 16 17 17 16 16 14 11 11 8 5 9 10 8 9 9 11 14 17 18 18 16 15 16 17 18 16 14 14 13 13 13 12 13 14 14 12 9 10 13 12 12 12 12 12 12 12 13 13 14 13 13 14 15 15 15 16 17 16 15 14 13 13 13 14 13 14 15
17 19 19 19 19 20 21 21 20 21 21 22 22 21 21 20 20 19 16 16 16 17 19 18 16 15 9 3 4 4 5 7 9 12 15 17 18 17 15 16 16 17 18 17 16 15 14 12 12 12 13 14 15 13 11 12 14 12 12 14 12 12 13 13 13 13 13 14 14 14 15 16 16 16 16 14 14 13 12 12 12 13 13 14 15
19 20 20 20 20 21 21 21 21 21 22 23 23 23 23 22 21 20 18 16 15 18 21 20 18 14 7 2 2 3 3 6 10 13 14 15 16 15 15 15 16 17 17 17 17 16 15 13 13 13 13 14 15 14 12 13 15 13 12 14 14 13 14 13 13 13 13 14 14 14 14 15 15 15 14 13 13 12 11 12 13 14 14 14 14
21 21 21 20 20 20 21 21 21 22 22 23 24 24 24 24 23 22 22 20 18 18 18 19 20 16 9 5 3 1 2 7 10 11 14 15 14 15 15 14 16 17 16 17 18 17 16 16 16 14 13 14 15 14 14 13 15 14 12 14 15 14 14 12 13 13 13 14 14 14 14 15 15 14 14 13 12 11 11 13 13 13 14 13 12
22 22 21 20 20 19 19 20 21 22 23 24 24 24 24 24 24 24 24 24 20 18 18 19 21 20 15 12 7 2 2 8 8 4 9 13 13 14 14 14 16 17 16 16 17 18 17 17 18 17 14 15 15 15 15 15 15 15 15 15 16 16 15 12 13 14 13 14 13 13 14 14 14 14 13 12 11 11 11 12 12 12 11 10 10
22 21 20 17 17 17 17 19 20 22 23 25 26 26 25 24 24 24 25 25 22 20 22 22 21 21 21 19 13 5 3 7 7 3 4 8 11 14 14 14 16 16 17 17 16 16 18 17 18 18 16 15 15 15 16 16 16 16 16 16 16 18 18 14 13 14 14 14 14 14 13 13 14 14 12 12 11 10 10 11 11 10 10 9 8
21 21 17 13 13 16 17 18 21 23 24 25 26 27 27 26 25 25 24 24 24 23 24 23 21 21 23 23 17 10 9 9 10 10 5 3 7 10 12 15 17 17 16 17 17 16 18 18 19 19 17 16 15 15 16 17 17 18 18 17 17 18 19 16 13 13 14 14 14 14 13 13 14 14 12 12 11 10 10 12 11 10 9 9 8
17 14 11 11 14 19 21 21 22 23 24 25 25 26 28 28 27 26 25 25 25 25 24 25 25 22 22 24 20 15 14 10 10 10 7 4 5 5 8 11 13 17 17 17 17 16 17 18 19 19 18 16 16 16 16 16 17 20 19 18 17 17 20 19 16 14 14 14 14 14 13 13 14 15 14 12 11 9 10 11 10 10 10 10 9
12 9 12 14 17 21 23 24 23 21 22 24 25 26 26 27 27 26 27 27 26 26 25 24 24 23 22 23 22 18 13 8 9 10 7 6 5 5 10 11 9 13 17 19 19 17 16 17 17 19 18 17 16 17 17 16 17 20 19 19 18 17 18 20 19 16 15 14 13 13 13 13 14 15 15 13 10 9 9 9 9 9 10 11 10
13 13 16 16 15 19 21 23 22 20 22 23 25 26 25 25 26 26 27 27 26 26 26 25 23 23 23 24 26 24 18 12 14 16 10 6 6 5 10 13 11 13 17 20 21 18 16 17 17 18 18 17 16 17 18 18 17 18 19 19 19 18 17 18 19 17 16 15 13 12 13 12 14 15 15 12 10 8 8 8 8 9 10 11 10
15 16 16 15 15 19 21 23 22 21 23 25 26 26 25 24 25 26 27 26 25 26 26 26 26 26 26 27 28 28 25 19 19 21 17 14 11 6 9 14 10 10 17 19 19 18 18 19 18 17 17 17 17 17 19 19 17 17 19 19 20 19 17 16 17 16 15 15 13 11 11 12 15 16 14 11 9 8 7 8 9 9 10 11 11
15 16 15 16 18 20 22 23 22 20 23 26 26 24 24 24 24 24 25 24 24 25 26 27 29 28 27 27 26 26 26 23 20 21 21 18 15 9 10 15 10 8 15 18 16 17 18 19 19 18 18 18 17 17 19 18 17 17 19 20 20 20 19 17 17 16 15 14 13 11 10 13 15 14 13 11 9 9 10 11 11 11 11 11 11
15 16 16 18 20 21 22 22 22 21 22 26 26 24 23 25 24 22 24 25 24 25 26 28 29 28 26 26 26 25 26 25 22 20 20 19 18 15 12 11 10 10 13 16 16 15 16 19 19 19 19 18 17 17 17 16 16 17 20 21 21 20 19 18 17 16 15 14 14 12 12 14 15 13 12 11 11 12 12 11 10 12 13 12 11
16 17 17 20 21 21 22 22 24 23 22 24 27 25 23 24 24 22 22 24 24 24 26 26 27 27 26 26 26 26 26 26 22 19 20 20 20 22 19 10 6 7 9 12 15 15 17 19 19 19 20 21 19 17 15 14 15 18 20 22 22 21 19 19 17 16 16 15 15 13 13 15 16 14 12 10 10 12 11 9 9 13 14 13 12
16 17 18 20 20 21 22 21 23 23 20 22 26 24 20 22 24 22 22 23 24 25 25 25 25 25 24 25 26 26 26 26 23 20 20 21 20 24 26 18 9 5 5 7 9 12 17 19 18 20 22 22 19 16 14 13 15 18 20 22 22 21 19 19 18 17 16 16 16 14 14 16 17 15 12 10 10 11 8 6 9 14 15 14 13
16 17 18 19 20 21 21 19 19 19 17 18 21 20 18 21 23 22 22 21 21 23 24 24 24 25 25 25 25 25 24 23 23 21 19 21 21 22 27 27 19 10 5 6 6 9 16 19 19 20 23 22 18 16 14 12 15 19 20 21 21 20 19 18 18 18 17 17 17 16 16 18 18 15 12 11 11 11 9 5 8 13 15 15 13
17 17 16 17 19 21 20 16 15 16 16 15 16 17 18 20 21 22 22 21 21 22 23 24 24 24 25 25 24 24 22 21 21 21 19 19 20 21 25 27 25 16 10 7 6 12 18 20 21 23 24 23 20 17 14 10 14 19 20 19 19 18 17 17 17 17 17 18 18 18 18 18 16 15 13 12 11 11 10 7 8 12 15 14 12
18 17 16 16 17 19 17 14 13 14 16 16 15 16 19 20 21 21 20 20 22 22 22 24 25 24 24 24 24 23 21 21 21 20 19 19 19 21 23 26 24 19 16 11 5 12 20 20 22 26 25 23 22 18 13 11 15 18 18 18 16 16 16 16 16 17 18 19 19 19 18 16 15 15 14 13 12 12 11 9 9 12 14 13 11
18 17 16 16 17 17 17 16 15 14 14 15 17 16 16 17 20 21 17 16 22 24 22 22 23 24 24 24 25 23 20 21 21 20 19 19 20 20 22 26 24 19 19 16 8 10 18 20 24 28 26 24 23 19 15 15 18 17 16 16 15 15 17 17 18 18 19 20 19 18 16 15 15 16 15 14 13 12 11 10 11 12 12 12 11
16 16 16 16 16 17 17 18 18 17 14 14 15 15 14 14 18 20 17 16 20 23 22 21 22 24 24 25 25 23 21 21 22 21 19 18 19 21 22 25 24 21 21 19 13 10 13 20 27 28 26 25 23 20 19 20 21 18 16 15 14 15 18 19 20 20 20 19 18 17 15 15 15 15 14 13 13 12 10 11 12 12 11 11 10
16 15 15 16 15 16 18 18 18 17 15 12 11 12 14 16 18 19 18 19 19 19 20 22 22 23 23 24 23 22 23 23 22 21 20 19 19 21 23 23 23 23 22 20 20 15 12 20 28 27 26 26 24 22 22 24 23 19 17 16 15 15 17 19 20 20 20 19 18 16 15 14 14 14 13 12 12 11 11 11 12 12 11 11 10
16 15 15 15 15 16 17 16 15 14 13 11 11 12 15 17 18 18 20 22 22 19 19 21 22 22 22 22 22 21 22 23 23 20 18 17 15 15 19 20 19 20 19 17 22 22 17 20 27 29 28 27 25 24 24 25 24 20 17 17 17 16 16 17 19 20 19 19 18 16 15 14 14 14 12 12 12 11 11 11 11 11 10 10 9
16 16 15 14 15 15 15 14 12 10 9 9 10 11 12 13 16 18 18 21 22 21 20 20 20 21 20 19 18 19 20 21 21 19 16 13 12 14 17 18 18 18 18 18 21 23 22 22 25 29 31 28 26 26 26 26 24 20 17 18 19 16 15 16 17 18 17 17 17 16 15 14 14 14 13 13 12 11 10 10 10 9 9 9 8
16 16 15 14 13 14 14 13 11 9 7 8 11 12 10 10 14 16 16 18 21 23 22 20 18 18 17 16 16 17 20 20 17 16 18 16 15 17 17 16 17 18 19 20 18 16 19 23 25 28 29 29 28 27 28 27 24 21 17 17 19 17 14 14 15 15 15 16 15 14 14 14 14 14 14 13 11 10 10 9 9 9 8 8 8
18 17 16 14 12 13 13 11 10 8 5 5 8 10 10 11 13 14 14 16 18 20 21 19 16 14 14 16 19 18 19 20 17 14 17 19 18 19 19 18 19 19 19 19 17 15 14 16 21 25 25 27 28 28 29 29 25 23 21 19 19 18 15 15 15 15 15 15 15 15 14 14 14 14 13 12 11 11 10 10 10 9 8 7 7
21 19 17 16 14 13 12 10 9 6 2 3 6 8 9 11 13 14 14 15 16 16 16 15 13 13 14 17 19 18 18 20 19 17 18 20 20 19 20 21 21 20 20 20 19 22 21 14 15 22 24 26 29 29 30 30 25 23 24 22 22 21 18 17 17 16 17 17 16 16 16 15 14 14 13 13 12 12 11 11 10 9 8 8 7
22 20 18 17 16 15 12 11 9 5 1 3 6 7 7 8 11 13 13 14 13 12 11 10 11 14 15 15 15 16 16 18 20 20 19 20 20 19 18 19 20 20 20 18 16 22 28 20 16 21 24 25 28 28 29 29 24 22 22 23 24 24 22 21 19 17 18 19 18 18 17 17 16 15 15 15 14 13 12 11 10 9 8 7 6
23 22 21 20 19 18 16 12 8 3 0 2 4 5 5 6 9 10 11 12 11 11 11 12 13 15 15 13 14 15 15 16 17 17 17 18 19 20 20 19 20 20 19 17 16 21 26 21 18 21 22 23 26 27 25 26 26 26 25 24 24 24 24 26 24 21 20 19 20 20 20 19 19 18 17 17 15 13 12 11 10 9 7 5 4
24 24 23 23 22 21 18 15 11 6 1 3 4 6 5 4 5 7 7 8 10 10 10 12 14 14 13 13 13 13 14 15 15 14 15 15 16 18 20 19 20 21 20 19 20 22 23 20 20 22 20 20 26 29 27 26 28 29 28 26 24 23 24 24 22 22 23 21 20 22 21 20 19 18 16 16 14 13 13 12 9 7 6 5 3
24 24 24 23 23 23 20 17 15 11 6 1 2 5 5 2 3 5 5 5 8 7 7 8 11 11 11 11 11 11 12 13 15 15 14 13 14 15 16 17 18 19 20 20 20 23 23 22 22 23 21 20 25 29 30 28 28 28 29 28 26 25 26 21 15 15 21 23 21 20 17 15 16 17 16 14 14 14 14 11 8 7 6 5 3
24 24 24 22 22 23 22 19 16 13 9 6 5 5 4 5 6 5 6 7 7 8 6 6 8 9 8 7 8 9 10 11 13 16 15 13 14 14 14 18 19 19 20 17 17 21 25 24 23 22 23 23 22 25 29 27 23 23 27 28 27 28 28 22 15 13 16 20 20 16 14 13 15 17 15 12 11 12 12 12 11 9 7 6 4
27 27 25 23 23 23 23 21 17 14 11 9 8 8 8 9 10 11 13 12 10 10 9 7 7 7 6 5 6 7 7 9 12 15 16 16 17 18 19 21 20 19 20 17 15 17 21 23 23 20 19 20 19 20 23 22 18 19 22 22 23 25 25 20 16 14 13 18 21 19 17 15 16 17 16 15 15 16 16 14 12 11 9 7 7
30 30 29 27 26 25 24 23 19 15 14 13 12 12 13 14 14 15 17 17 16 14 12 10 8 7 5 4 7 8 8 12 17 19 20 20 21 21 21 18 15 14 15 13 12 13 14 16 18 16 15 17 17 17 18 18 18 19 20 20 20 22 23 19 18 18 16 19 22 19 16 15 18 19 20 21 20 19 17 15 13 12 11 11 11
29 30 30 30 29 29 28 26 24 20 18 20 19 17 17 17 16 17 18 19 20 20 18 16 13 11 9 8 9 9 10 16 21 21 20 19 20 21 19 17 14 13 13 12 10 11 12 12 12 12 12 12 11 12 13 14 15 17 16 16 17 20 21 18 16 17 16 16 17 15 14 17 20 22 24 24 22 21 19 17 15 14 14 14 13
30 31 32 33 32 33 32 31 30 26 21 23 25 23 20 19 19 20 22 24 25 26 24 22 19 16 14 12 11 9 12 17 17 17 20 22 22 23 22 21 20 18 18 16 12 11 13 12 11 11 10 9 7 7 8 9 11 12 13 13 13 14 16 16 13 12 13 13 13 14 17 20 21 23 26 25 23 23 21 19 17 15 14 14 14
31 32 33 34 35 35 34 34 33 29 25 26 28 27 23 22 24 27 29 31 33 33 33 31 29 27 23 17 12 12 16 18 15 15 19 22 24 27 27 27 27 26 25 22 18 17 17 17 17 15 14 12 12 11 10 10 10 11 13 14 14 15 18 17 13 11 12 11 10 14 20 23 24 26 27 24 23 24 22 20 19 17 15 15 15
30 30 32 35 38 38 36 35 34 32 30 29 30 30 27 26 28 31 34 36 38 38 38 38 36 36 34 28 20 17 18 18 16 15 16 18 21 26 29 30 30 30 28 25 23 22 21 20 18 16 15 13 12 12 11 10 11 10 12 15 17 19 20 18 15 13 12 11 11 15 20 24 27 29 28 22 19 22 22 20 19 17 16 16 15
26 28 32 36 39 39 38 37 36 34 33 31 30 31 32 31 31 32 33 36 39 38 39 40 40 39 38 36 31 26 23 22 20 18 17 18 20 22 26 31 31 28 25 23 23 22 21 20 18 17 16 14 12 12 11 10 11 10 10 13 16 19 20 21 20 16 10 7 10 15 21 27 29 30 30 22 13 13 19 20 18 16 16 15 15
Wind_Direction
212 206 208 210 219 228 220 203 198 206 218 228 234 228 221 217 221 235 247 257 255 254 268 254 233 229 213 197 188 190 191 177 165 148 141 146 145 147 146 136 131 133 138 136 127 123 119 120 116 110 117 120 117 113 114 116 113 112 114 115 116 118 114 109 108 106 105 106 107 107 104 102 102 102 100 100 98 96 95 93 95 99 101 101 102
224 222 221 217 217 223 223 215 206 208 217 225 232 228 223 220 219 227 238 256 264 264 266 246 232 241 223 195 179 187 193 182 172 156 141 141 146 153 151 144 151 156 148 140 131 129 124 124 121 115 123 125 119 116 117 120 122 120 118 117 113 112 115 115 112 110 109 110 111 110 108 107 107 108 105 102 100 96 93 90 90 92 96 100 102
233 233 233 230 225 223 224 222 218 217 221 223 224 223 221 222 223 223 230 244 257 265 265 245 237 239 220 192 172 173 185 186 179 164 144 137 146 155 154 153 160 162 150 136 134 138 131 131 129 124 127 128 124 119 121 124 126 126 127 126 118 112 119 122 118 113 113 114 114 112 113 113 113 113 108 103 99 94 92 92 92 90 91 95 99
240 240 243 240 236 232 229 229 228 225 226 227 222 221 219 223 226 223 230 239 251 265 260 246 244 242 238 206 178 169 181 191 183 168 152 140 143 153 155 158 161 160 148 138 142 146 137 137 135 133 134 130 126 122 128 132 130 130 131 132 126 119 121 124 122 116 116 117 115 114 115 116 116 114 108 104 98 91 91 97 99 96 93 92 95
245 246 247 246 244 241 236 233 233 231 231 233 231 228 224 227 230 226 236 245 255 262 252 251 259 274 283 228 196 185 186 192 186 170 159 147 144 151 154 157 160 159 153 146 150 150 144 147 142 139 141 134 130 130 135 138 136 134 129 129 128 124 125 126 125 121 120 117 116 117 118 117 114 110 105 102 96 89 91 100 103 101 99 97 95
250 249 247 247 246 244 242 235 234 233 231 234 236 237 233 231 232 233 245 257 261 257 250 252 251 280 305 231 200 186 180 187 183 172 165 157 150 152 155 156 158 159 159 155 158 159 152 152 149 145 148 145 140 139 143 142 139 133 128 130 130 130 131 131 130 128 125 119 116 116 113 111 109 108 104 99 94 90 90 98 104 103 102 99 95
251 249 248 247 246 246 245 238 235 235 233 233 234 239 239 235 234 238 248 262 262 250 251 251 242 269 295 206 169 160 176 183 179 172 168 164 157 157 159 157 158 160 163 163 167 168 158 157 156 150 151 151 145 144 145 141 139 136 131 131 130 129 128 129 131 130 129 125 120 115 111 107 104 105 103 98 95 91 90 95 102 102 99 96 93
246 242 244 246 244 245 247 241 236 234 233 232 231 237 240 236 233 236 245 264 267 247 246 246 239 257 260 210 181 165 175 172 173 176 171 169 167 164 164 163 163 162 165 169 174 173 169 172 167 156 158 154 147 148 147 144 144 141 135 134 134 131 126 126 130 130 131 129 125 119 114 109 106 107 106 102 100 95 92 94 98 99 98 98 95
241 238 243 244 242 241 241 239 235 230 229 230 232 236 238 235 232 231 237 257 297 255 237 235 231 236 243 213 190 187 180 170 174 182 178 177 176 172 170 170 169 167 169 172 176 178 181 183 168 157 162 157 153 157 153 149 149 146 142 140 139 137 132 130 130 131 131 130 129 123 117 112 110 111 108 105 103 101 98 95 96 99 101 103 100
234 234 241 245 244 242 238 232 227 225 226 229 232 235 237 236 231 227 227 228 268 261 230 226 226 229 231 209 181 175 195 195 183 178 179 181 182 181 177 175 176 175 173 174 176 179 184 183 167 161 167 166 161 162 159 154 151 150 147 142 141 140 135 131 129 130 131 130 130 126 120 117 115 116 112 109 107 105 103 98 97 98 100 104 105
227 226 233 240 243 243 240 231 223 222 226 231 231 232 234 233 230 228 227 230 233 238 232 223 220 223 218 203 187 183 207 223 198 174 175 179 184 186 182 181 183 182 180 179 175 173 174 174 170 168 171 172 163 161 163 157 153 152 149 146 144 142 137 133 132 130 129 130 133 131 124 119 119 120 118 115 113 108 106 102 101 100 100 106 108
224 224 226 232 238 240 240 236 230 227 228 232 232 231 231 229 231 231 232 240 241 235 236 225 213 210 206 200 197 191 198 220 206 179 172 178 186 187 184 183 183 183 186 182 169 165 165 161 168 174 171 170 168 169 171 161 156 153 152 151 147 144 141 138 136 132 130 128 130 131 128 123 121 122 120 118 117 113 111 108 108 108 107 111 112
225 225 225 228 233 235 233 231 231 228 229 233 234 234 232 230 233 235 233 230 229 230 225 214 199 193 196 200 200 194 190 201 199 186 175 175 183 187 183 179 179 180 184 182 168 163 162 157 163 174 173 173 174 179 182 163 155 155 153 153 151 148 145 141 138 136 136 131 125 125 127 127 125 123 121 120 118 116 115 115 115 114 112 114 116
227 227 228 227 228 231 227 224 225 226 228 233 236 235 234 233 232 233 230 219 220 227 215 199 187 184 181 183 199 207 202 187 185 188 179 173 181 188 184 179 179 180 181 182 177 169 167 165 163 168 175 178 179 184 187 161 152 160 161 157 156 154 149 144 142 139 138 136 130 126 128 130 129 127 124 121 120 118 117 119 121 119 115 115 118
228 227 229 229 228 230 228 225 226 228 229 231 233 233 232 233 230 228 224 216 220 225 216 206 196 183 172 177 195 206 210 193 199 201 183 175 184 188 184 181 180 181 181 182 186 182 179 180 174 174 177 180 183 186 185 164 157 171 171 161 160 158 155 151 148 146 142 141 137 135 135 134 132 128 126 124 123 123 120 116 119 122 121 119 120
229 228 230 233 231 231 231 230 229 231 233 233 234 234 232 231 229 227 221 211 207 212 215 213 200 181 163 175 161 160 206 190 197 212 200 186 190 191 187 185 182 185 186 184 189 192 191 192 190 190 187 184 187 188 185 171 167 179 174 162 164 162 161 159 155 153 150 148 145 142 140 137 135 133 132 132 130 127 121 115 115 119 121 121 122
233 232 233 235 235 235 235 235 235 234 236 237 238 239 237 233 229 226 222 217 209 205 212 214 209 202 187 170 143 154 223 165 168 206 210 195 194 196 193 193 191 189 188 186 190 196 199 199 198 201 199 193 193 191 190 183 178 185 175 164 170 168 166 165 160 160 158 155 151 146 144 141 142 144 141 138 133 127 122 121 119 118 121 122 122
237 235 236 238 238 240 241 243 243 241 241 242 243 241 239 237 232 228 225 224 217 205 208 212 210 210 206 198 192 205 193 160 156 194 205 198 198 198 197 198 199 195 189 187 189 195 199 199 199 202 202 199 196 193 195 194 189 192 185 176 175 170 171 173 165 165 162 158 156 150 150 152 152 151 147 140 132 131 130 128 125 121 123 125 125
240 237 236 239 243 250 255 255 253 252 250 247 246 244 241 239 235 232 229 225 217 207 210 213 207 207 210 208 205 219 207 171 169 162 172 200 197 193 198 196 198 198 195 195 194 194 194 194 196 199 198 196 194 193 197 200 198 198 193 186 181 172 174 177 170 169 166 162 162 160 161 162 160 158 154 145 138 139 138 135 134 133 131 130 132
246 241 235 238 247 254 256 254 253 254 254 253 250 248 245 244 240 236 233 228 219 211 210 208 203 205 209 210 211 227 228 191 177 175 155 174 186 188 200 199 199 200 198 201 201 195 193 193 194 195 196 193 190 193 199 200 201 202 197 191 187 176 173 177 177 176 172 167 166 166 166 167 165 166 163 153 146 144 141 142 146 145 140 136 135
255 253 247 246 244 245 246 244 243 247 251 254 254 252 248 245 242 239 235 228 222 216 210 205 205 206 205 206 211 222 225 203 181 179 158 153 172 174 187 193 204 205 202 204 202 195 192 193 193 192 196 196 191 196 201 200 200 201 198 193 191 182 175 178 182 184 180 175 172 170 170 170 170 171 167 159 156 153 150 155 160 158 154 149 142
273 277 261 251 244 245 247 246 245 247 252 256 256 256 252 247 244 241 236 228 221 219 216 212 211 210 203 200 202 206 209 197 185 182 163 165 178 169 173 178 193 202 204 205 200 197 194 193 194 195 199 198 193 196 200 198 197 198 197 193 194 189 181 180 184 189 187 182 180 180 177 174 173 174 169 164 165 163 160 164 168 169 164 155 149
288 284 270 262 259 259 259 257 254 250 250 254 255 253 254 252 248 243 238 231 225 222 222 219 213 209 205 201 201 200 193 186 187 185 177 172 168 161 175 179 182 189 199 204 202 198 195 195 197 198 200 197 193 194 196 196 195 197 197 194 196 195 188 185 185 189 191 188 190 191 185 175 171 171 168 168 175 174 167 162 164 172 165 155 153
293 292 286 278 272 269 268 265 260 250 245 247 250 251 253 253 248 243 240 236 228 223 219 217 212 207 206 205 205 204 200 197 193 189 190 186 172 157 168 172 176 189 194 199 201 198 198 199 198 199 198 193 193 194 193 195 195 196 197 196 197 197 193 192 188 188 191 193 197 200 191 177 171 170 168 169 175 174 171 166 165 167 160 154 153
293 295 294 283 273 267 265 263 262 257 251 248 246 248 250 250 247 242 240 236 229 222 217 216 214 210 206 206 206 207 205 203 197 193 194 188 173 160 165 169 165 171 187 194 197 197 202 203 197 196 196 190 190 191 192 196 196 197 198 196 197 198 196 197 196 194 195 197 200 202 194 180 176 175 170 169 170 170 175 178 172 163 157 156 156
297 299 297 291 286 279 271 266 266 264 259 255 250 244 241 244 244 241 240 239 233 227 222 217 214 212 209 206 206 208 207 203 200 197 194 187 176 164 157 162 159 154 174 189 190 193 203 203 195 192 196 193 188 187 192 200 199 196 196 195 196 199 199 200 202 202 201 202 199 196 193 186 183 180 171 171 177 177 184 192 181 164 159 160 160
307 308 304 299 298 293 281 270 267 264 259 260 260 250 238 236 237 235 237 238 233 228 224 217 213 213 212 209 209 211 208 203 201 200 197 193 187 176 163 150 150 156 167 183 187 193 199 200 196 192 195 197 193 188 189 198 200 195 193 194 196 198 201 202 203 204 205 204 199 195 195 189 183 180 176 180 184 181 186 200 193 176 166 163 165
314 312 308 304 301 297 287 276 268 263 259 262 263 256 242 235 234 230 230 235 234 229 225 221 218 215 212 210 211 211 209 205 201 198 199 199 195 185 175 164 156 158 165 177 187 199 199 195 194 195 196 194 191 190 188 190 194 193 191 195 199 199 201 202 204 206 207 205 202 199 194 185 180 181 185 190 188 187 194 199 191 184 173 167 171
320 317 312 307 301 297 294 287 274 264 266 270 264 257 246 237 235 231 227 230 232 227 223 221 219 216 211 210 209 206 204 203 201 198 199 201 198 192 185 177 169 161 162 178 182 191 194 192 188 190 192 191 190 192 193 193 194 192 191 195 200 201 201 203 206 209 207 203 200 196 188 182 181 185 191 195 194 200 212 206 188 185 178 174 179
327 325 318 308 298 297 296 291 278 264 261 262 260 256 247 238 236 234 227 223 223 221 220 219 217 215 212 208 204 201 198 197 200 199 199 201 197 193 193 186 177 172 167 168 182 185 185 187 183 182 184 188 193 193 191 197 194 190 191 191 194 198 200 201 203 201 198 194 191 187 182 181 185 191 196 198 201 206 214 212 191 184 181 179 183
330 328 322 308 295 293 291 283 273 261 251 244 246 248 240 231 229 230 224 220 223 223 220 219 218 216 215 211 206 203 199 199 202 201 200 203 200 195 196 191 185 184 175 159 163 187 184 179 176 178 182 187 191 189 187 188 183 181 183 183 187 193 192 189 187 185 184 182 181 180 182 185 191 197 200 203 207 209 210 208 191 183 184 182 180
330 328 323 311 301 297 291 281 272 264 253 243 240 244 242 230 225 227 224 220 225 225 221 220 218 216 214 211 208 205 203 205 205 205 204 203 202 201 198 193 190 188 181 170 157 176 182 175 170 176 182 185 186 185 180 175 172 173 176 178 183 188 184 178 176 176 177 177 180 183 188 195 198 202 206 208 211 210 208 202 189 185 185 181 178
331 330 327 319 313 310 302 290 279 272 266 254 241 241 244 230 221 225 221 213 221 222 220 221 218 214 212 210 210 208 203 202 202 206 206 197 198 204 202 199 194 186 183 177 160 157 175 173 171 176 182 183 183 182 174 168 169 174 176 178 183 187 185 181 178 180 183 184 188 194 199 204 204 204 206 208 208 206 202 194 188 187 185 180 180
332 332 330 325 321 321 314 300 286 279 273 261 244 235 230 217 212 214 204 200 209 213 217 222 216 212 213 212 215 213 205 202 201 205 208 201 199 200 197 199 196 189 190 182 163 161 177 174 171 175 180 180 180 179 173 167 168 174 180 183 186 188 190 190 187 189 193 197 201 207 210 209 206 204 204 203 202 198 193 187 187 189 185 183 187
336 338 334 327 323 322 319 312 303 290 273 258 245 234 226 214 207 207 204 203 205 202 210 221 216 212 216 217 219 216 207 205 205 205 208 205 197 188 187 193 191 187 195 188 169 168 174 171 170 172 174 176 180 181 177 170 171 176 182 187 188 189 194 199 200 200 203 207 211 214 213 208 205 204 202 200 197 191 188 186 188 190 187 186 192
344 345 343 335 328 324 320 318 316 301 275 258 240 224 219 213 205 206 209 210 206 199 205 218 218 215 217 219 220 216 208 205 204 203 201 196 190 188 187 188 186 184 191 190 182 178 170 162 168 172 172 175 182 183 178 175 180 183 183 185 188 192 196 200 204 207 209 212 213 211 209 207 206 204 201 199 195 189 187 186 188 191 188 189 194
352 350 349 343 333 326 322 321 316 298 276 256 236 218 205 202 202 206 210 209 205 202 206 214 217 216 216 216 215 214 209 202 198 200 197 187 190 195 186 181 184 183 184 186 191 193 174 159 164 171 172 175 180 182 181 180 181 182 181 185 191 193 194 195 200 206 207 208 206 205 206 207 207 205 202 199 192 186 185 184 189 191 189 192 198
5 359 353 350 340 328 324 326 321 303 284 255 237 223 206 199 200 203 207 206 205 208 211 212 213 211 211 216 216 214 210 203 199 200 192 183 189 191 182 187 193 183 178 181 188 199 189 162 162 168 169 174 177 179 183 183 180 179 181 187 193 193 189 191 196 200 201 202 199 199 202 204 204 202 199 196 190 186 186 186 190 193 195 200 206
14 7 1 356 349 341 337 341 341 329 308 250 230 214 202 203 202 199 200 203 207 212 212 209 211 213 215 220 219 214 213 210 204 201 190 182 189 191 184 190 193 183 180 176 172 181 182 171 175 172 164 171 178 178 182 185 182 180 183 184 188 192 195 200 200 194 194 199 199 198 201 201 200 197 196 196 194 192 192 194 195 197 201 209 217
21 20 19 11 5 6 7 5 1 357 335 259 235 214 203 210 210 205 204 206 209 212 212 209 212 215 215 217 217 216 218 212 205 206 199 187 188 191 187 186 186 184 183 175 167 173 173 173 190 180 163 166 176 177 181 184 180 181 188 187 184 189 198 206 205 195 191 197 199 199 200 199 198 197 197 198 199 198 200 201 200 202 208 217 230
30 32 35 31 24 23 23 23 27 32 264 255 243 229 221 222 223 221 215 205 196 197 207 209 208 211 211 204 204 213 218 213 207 208 203 193 187 186 184 181 179 179 174 172 178 176 171 178 195 185 169 166 172 174 178 182 183 186 192 192 186 189 197 202 206 203 197 198 201 200 200 200 198 200 202 203 204 205 208 209 208 209 211 214 217
34 37 40 39 36 33 27 26 39 55 82 244 230 219 220 226 227 227 220 195 173 177 201 200 185 191 206 204 199 208 213 209 205 201 198 196 193 192 188 181 179 179 171 172 186 184 177 185 189 180 172 166 172 178 180 184 189 190 190 193 191 186 186 189 197 201 201 202 202 200 202 205 204 204 208 211 210 211 214 214 208 197 184 173 165
34 37 41 41 42 41 37 33 38 50 57 52 186 196 205 176 153 182 180 154 142 152 195 194 167 173 202 208 204 209 209 201 194 191 191 192 194 198 193 184 187 189 177 174 188 192 188 188 181 176 175 167 171 181 183 187 194 191 189 194 191 180 177 178 181 193 203 206 201 195 199 207 210 208 208 211 212 212 210 200 180 162 150 135 113
36 39 42 44 45 46 45 42 43 51 63 79 97 125 143 109 100 117 111 99 100 106 125 152 157 168 185 189 190 199 202 195 188 186 183 180 188 195 188 186 194 196 188 183 186 185 184 183 176 173 176 171 170 178 183 187 192 190 189 191 186 180 178 176 168 172 197 207 199 182 173 185 201 202 195 189 186 179 171 160 147 136 126 109 84
44 46 48 50 51 49 46 45 48 56 71 89 92 92 95 88 83 84 84 85 91 94 98 111 137 155 159 163 162 163 179 182 169 163 156 150 160 173 177 182 188 187 183 181 171 162 167 173 170 167 172 172 169 172 175 174 171 171 174 174 175 180 177 168 156 152 173 195 187 163 148 163 184 181 162 148 147 144 137 134 131 122 113 101 81
45 46 48 50 51 50 48 48 51 61 77 87 84 83 86 85 85 86 86 88 88 87 91 98 110 120 116 140 143 123 130 146 142 143 146 141 145 157 164 166 167 163 158 156 157 155 152 153 147 140 149 159 157 158 164 165 160 159 157 151 155 165 162 152 143 138 147 174 175 154 138 157 171 161 143 137 136 132 128 127 125 116 105 95 85
45 46 47 49 49 51 52 52 55 63 81 93 94 92 91 89 90 88 86 85 81 77 81 90 99 106 102 114 131 125 123 130 134 142 149 146 144 145 141 137 139 140 132 131 155 162 146 131 121 117 123 129 125 130 144 155 157 158 157 148 145 148 144 138 140 139 139 160 173 161 142 154 163 152 139 137 136 131 129 124 116 110 100 89 81
49 49 49 48 49 53 56 56 58 62 72 88 98 99 94 92 92 88 86 84 80 75 74 78 85 91 95 109 127 136 136 132 130 134 139 139 139 134 123 115 115 113 108 112 128 136 130 129 133 135 134 132 134 143 158 172 172 171 167 153 147 153 147 141 148 155 146 151 176 176 154 153 161 151 139 140 140 134 130 122 111 102 93 86 79
52 51 50 50 50 54 58 59 61 64 64 73 89 96 95 95 94 90 87 83 78 73 70 70 73 75 79 93 117 138 145 139 125 120 126 128 129 127 119 110 107 103 99 101 107 109 111 117 123 129 132 136 147 153 161 173 178 186 182 164 159 168 158 146 146 152 147 141 157 167 156 155 162 154 142 143 143 134 126 120 114 103 92 87 81
56 54 53 53 53 55 58 59 63 67 67 72 86 93 93 94 92 90 88 84 77 73 71 70 70 70 73 79 93 117 135 135 122 118 123 121 118 118 116 111 105 102 101 103 104 103 104 106 109 116 120 123 132 133 132 139 148 168 181 170 166 169 163 156 153 147 142 137 139 152 155 155 157 152 142 139 140 137 131 123 117 111 102 95 86
60 58 56 56 56 55 56 60 65 69 70 74 86 92 92 92 92 90 88 84 79 74 71 71 69 68 70 74 79 92 112 122 119 115 115 111 102 99 105 108 105 101 101 104 104 102 101 99 98 99 100 100 108 111 109 118 130 146 168 172 177 181 173 167 161 150 139 134 138 148 154 155 156 154 149 143 139 144 144 132 122 118 112 103 95